| time (UTC) | temp C | wind direction | speed KPH | gust KPH | rain 1hr cm | rain 24hr cm | rain mn cm | humidity % | barometer mb |
| 20260503210121 | 21 | 128 | 6.4 | 11.3 | 0.00 | 0.00 | 0.00 | 36 | 1020.1 |
| 20260503204638 | 22 | 162 | 8.0 | 12.9 | 0.00 | 0.00 | 0.00 | 34 | 1020.4 |
| 20260503203130 | 21 | 210 | 6.4 | 14.5 | 0.00 | 0.00 | 0.00 | 36 | 1020.8 |
| 20260503201626 | 21 | 113 | 3.2 | 9.7 | 0.00 | 0.00 | 0.00 | 36 | 1021.0 |
| 20260503200159 | 21 | 128 | 6.4 | 11.3 | 0.00 | 0.00 | 0.00 | 36 | 1021.2 |
| 20260503194630 | 21 | 136 | 8.0 | 16.1 | 0.00 | 0.00 | 0.00 | 35 | 1021.4 |
| 20260503193126 | 21 | 246 | 4.8 | 11.3 | 0.00 | 0.00 | 0.00 | 35 | 1021.6 |
| 20260503191638 | 21 | 235 | 0.0 | 12.9 | 0.00 | 0.00 | 0.00 | 37 | 1021.6 |
| 20260503190134 | 20 | 150 | 3.2 | 12.9 | 0.00 | 0.00 | 0.00 | 40 | 1021.8 |
| 20260503183122 | 19 | 256 | 4.8 | 11.3 | 0.00 | 0.00 | 0.00 | 43 | 1022.5 |
| 20260503181633 | 18 | 256 | 4.8 | 12.9 | 0.00 | 0.00 | 0.00 | 43 | 1022.7 |
| 20260503180124 | 18 | 239 | 3.2 | 11.3 | 0.00 | 0.00 | 0.00 | 45 | 1022.8 |
| 20260503174639 | 18 | 221 | 4.8 | 9.7 | 0.00 | 0.00 | 0.00 | 44 | 1023.1 |
| 20260503173130 | 18 | 277 | 1.6 | 8.0 | 0.00 | 0.00 | 0.00 | 45 | 1023.3 |
| 20260503171626 | 18 | 260 | 3.2 | 9.7 | 0.00 | 0.00 | 0.00 | 46 | 1023.3 |
| 20260503170138 | 17 | 21 | 0.0 | 8.0 | 0.00 | 0.00 | 0.00 | 47 | 1023.3 |
| 20260503160134 | 15 | 20 | 3.2 | 6.4 | 0.00 | 0.00 | 0.00 | 56 | 1023.9 |
| 20260503150129 | 13 | 310 | 1.6 | 6.4 | 0.00 | 0.00 | 0.00 | 59 | 1024.1 |
| 20260503140140 | 10 | 6 | 0.0 | 0.0 | 0.00 | 0.00 | 0.00 | 69 | 1023.9 |
| 20260503130137 | 6 | 360 | 0.0 | 0.0 | 0.00 | 0.00 | 0.00 | 75 | 1023.6 |
| 20260503120155 | 7 | 91 | 0.0 | 0.0 | 0.00 | 0.00 | 0.00 | 75 | 1022.8 |
| 20260503110128 | 7 | 68 | 0.0 | 1.6 | 0.00 | 0.00 | 0.00 | 74 | 1023.1 |
| 20260503100124 | 7 | 313 | 0.0 | 0.0 | 0.00 | 0.00 | 0.00 | 75 | 1023.1 |
| 20260503090141 | 8 | 20 | 1.6 | 4.8 | 0.00 | 0.00 | 0.00 | 73 | 1023.3 |
| 20260503080131 | 8 | 355 | 1.6 | 3.2 | 0.00 | 0.00 | 0.00 | 72 | 1024.0 |
| 20260503071633 | 10 | 9 | 0.0 | 0.0 | 0.00 | 0.00 | 0.00 | 69 | 1024.2 |
| 20260503070126 | 10 | 352 | 0.0 | 0.0 | 0.00 | 0.00 | 0.00 | 68 | 1024.2 |
| 20260503060122 | 10 | 352 | 0.0 | 0.0 | 0.00 | 0.00 | 0.00 | 67 | 1023.8 |
| 20260503054655 | 10 | 170 | 0.0 | 1.6 | 0.00 | 0.00 | 0.00 | 65 | 1023.7 |
| 20260503053150 | 11 | 170 | 0.0 | 0.0 | 0.00 | 0.00 | 0.00 | 62 | 1023.8 |
| 20260503051640 | 12 | 161 | 0.0 | 0.0 | 0.00 | 0.00 | 0.00 | 60 | 1023.5 |
| 20260503050133 | 12 | 161 | 0.0 | 3.2 | 0.00 | 0.00 | 0.00 | 59 | 1023.4 |
| 20260503044647 | 12 | 283 | 0.0 | 3.2 | 0.00 | 0.00 | 0.00 | 58 | 1023.5 |
| 20260503043138 | 12 | 8 | 0.0 | 1.6 | 0.00 | 0.00 | 0.00 | 59 | 1023.4 |
| 20260503041633 | 12 | 8 | 0.0 | 1.6 | 0.00 | 0.00 | 0.00 | 56 | 1023.4 |
| 20260503040125 | 13 | 8 | 0.0 | 0.0 | 0.00 | 0.00 | 0.00 | 59 | 1023.3 |
| 20260503034658 | 13 | 8 | 1.6 | 3.2 | 0.00 | 0.00 | 0.00 | 56 | 1023.4 |
| 20260503033131 | 13 | 9 | 0.0 | 3.2 | 0.00 | 0.00 | 0.00 | 57 | 1023.4 |
| 20260503031622 | 15 | 37 | 0.0 | 0.0 | 0.00 | 0.00 | 0.00 | 55 | 1023.2 |
| 20260503030140 | 15 | 37 | 0.0 | 1.6 | 0.00 | 0.00 | 0.00 | 54 | 1023.1 |
| 20260503024654 | 15 | 35 | 0.0 | 1.6 | 0.00 | 0.00 | 0.00 | 53 | 1022.9 |
| 20260503023124 | 15 | 279 | 0.0 | 0.0 | 0.00 | 0.00 | 0.00 | 51 | 1022.9 |
| 20260503021637 | 16 | 279 | 0.0 | 0.0 | 0.00 | 0.00 | 0.00 | 48 | 1022.9 |
| 20260503020128 | 16 | 279 | 0.0 | 0.0 | 0.00 | 0.00 | 0.00 | 46 | 1022.7 |
| 20260503014624 | 16 | 279 | 0.0 | 1.6 | 0.00 | 0.00 | 0.00 | 45 | 1022.6 |
| 20260503013135 | 17 | 272 | 1.6 | 3.2 | 0.00 | 0.00 | 0.00 | 40 | 1022.4 |
| 20260503011625 | 17 | 257 | 1.6 | 4.8 | 0.00 | 0.00 | 0.00 | 40 | 1022.4 |
| 20260503010122 | 17 | 258 | 3.2 | 8.0 | 0.00 | 0.00 | 0.00 | 39 | 1022.3 |
| 20260503004655 | 18 | 254 | 3.2 | 9.7 | 0.00 | 0.00 | 0.00 | 38 | 1022.3 |
| 20260503003129 | 18 | 240 | 4.8 | 12.9 | 0.00 | 0.00 | 0.00 | 36 | 1022.2 |
| 20260503001622 | 18 | 263 | 3.2 | 16.1 | 0.00 | 0.00 | 0.00 | 36 | 1022.3 |
| 20260503000135 | 19 | 255 | 6.4 | 11.3 | 0.00 | 0.00 | 0.00 | 36 | 1022.0 |
| 20260502233128 | 18 | 251 | 3.2 | 16.1 | 0.00 | 0.00 | 0.00 | 36 | 1022.0 |
| 20260502231625 | 19 | 240 | 9.7 | 19.3 | 0.00 | 0.00 | 0.00 | 36 | 1022.1 |
| 20260502230120 | 19 | 255 | 8.0 | 29.0 | 0.00 | 0.00 | 0.00 | 36 | 1022.2 |
| 20260502224636 | 19 | 246 | 9.7 | 16.1 | 0.00 | 0.00 | 0.00 | 37 | 1022.3 |
| 20260502223128 | 19 | 153 | 9.7 | 16.1 | 0.00 | 0.00 | 0.00 | 37 | 1022.3 |
| 20260502221623 | 18 | 216 | 6.4 | 11.3 | 0.00 | 0.00 | 0.00 | 37 | 1022.6 |
| 20260502220156 | 18 | 263 | 8.0 | 17.7 | 0.00 | 0.00 | 0.00 | 39 | 1022.7 |
| 20260502214629 | 18 | 234 | 11.3 | 17.7 | 0.00 | 0.00 | 0.00 | 38 | 1023.0 |
| 20260502213127 | 18 | 286 | 4.8 | 16.1 | 0.00 | 0.00 | 0.00 | 41 | 1023.2 |
| 20260502211620 | 18 | 163 | 4.8 | 19.3 | 0.00 | 0.00 | 0.00 | 39 | 1023.5 |